GOES 7 [-]

Last updated on Jan. 18, 2020, 4:37 a.m. UTC

1 17561U 87022A   20017.15571979 -.00000161  00000-0  00000-0 0  9992
2 17561  14.8745 356.3572 0008130 350.4246 176.6722  0.99908338103552
UTC
Height (km)
Latitude
Longitude
Inclination
Orbital Period
UTC large
Height (km)
Speed (km/s)
/
Latitude / Longitude
Inclination (degrees)
Orbital Period (minutes)
Azimuth
Elevation
Range (km)
Doppler Factor
iOS Compass Heading
iOS Angle

Next 30 passes for location: Hong Kong

Rise time Rise Azimuth (degrees) Set time Set Azimuth (degrees) Duration Max altitude (degrees)

No matching passes for this satellites